STARLINK-30906, 58408

Orbit data source: Space-Track

STARLINK-30906, 58408 is a payload satellite owned by SpaceX/Seattle (US) in LEO that was launched on Wed, 22 Nov 2023 UTC via an FALCON 9 launch vehicle from the Air Force Eastern Test Range (AFETR). Payload-class satellites include a variety of spacecraft equipped with specific instruments for various scientific and technological missions. These include communications satellites like Starlink; space stations such as the ISS; scientific satellites like the Hubble; Earth observation satellites from companies like Planet Labs, Umbra, and HawkEye 360; GPS; miniature CubeSats for education and research; and military/defense satellites.

Loading next visibility...
Identifier
58408, 2023-180G
Orbit
LEO
Country
Flag of USUS
Related business
Manufacturer
SpaceX/Seattle
Mission
Operational Commercial Communications
Bus & Motor
STARLINK V2M, Unknown motor
Mass
730 kg wet, ~700 kg dry
Launch date (UTC)
2023-11-22 (2 years ago)
Launch vehicle
FALCON 9
Launch site
Air Force Eastern Test Range (AFETR)
Object type
Payload
Rocket body
Debris
Shape & HBR
Box + 2 Pan, 14.5 m
Radar Cross Section
33.884 m², Large (>1 m²)

Expand to show TLE details & history
Last TLE update: 1 day ago

TLE from 1 day ago
0 STARLINK-30906
1 58408U 23180G   25249.58311666  .00000703  00000-0  67128-4 0  9995
2 58408  43.0054 336.8552 0001916 290.2231  69.8405 15.02531051 99778
Epoch: 2025-09-06T13:59Z
TLE epoch observation values (Epoch: 2025-09-06T13:59:41.279Z)
Latitude
-0.00003°
Longitude
141.0183°
Altitude
558.415 km
Speed
7.584 km/s
True Right ascension
22h 27m 25s
True Declination
0° 00' 00"
Sunlit
Object was in full shadow at epoch
Visualization orbit readout
Latitude
Unknown
Longitude
Unknown
Altitude
Unknown
Speed
Unknown
Apparent Right ascension
Unknown
Apparent Declination
Unknown
Sunlit
N/A
Visualization observer readout
Local Sidereal Time
11:45:08
Azimuth
Unknown
Elevation
Unknown
Doppler factor
Unknown
Orbital elements
Apogee altitude
562.347 km
Perigee altitude
559.688 km
Semi-major axis
6,939.155 km
Eccentricity
0.00019
Inclination
43.0054°
RAAN
336.8552°
Arg. of periapsis
290.2231°
True anomaly
69.86111°
Mean anomaly
69.8405°
Eccentric anomaly
69.85081°
Mean motion
3.75477 °/min
Orbital period
95.88 mins
BSTAR
0.000067128
Loading maneuver chart data...
Computing Atmospheric mass density...
Loading historical data...
Loading historical data...
Loading historical data...
Loading historical data...
Loading historical data...
Loading historical data...
Loading historical data...

Documentation

Showing up to 5 results
|